Regional Weather Roundup
Issued by NWS

Home | Current Version | Previous Version | Graphics & Text | Print | Product List | Glossary On
Versions: 1 2 3 4 5 6 7 8 9 10 11 12 13 14 15 16 17 18 19 20 21 22 23 24 25 26 27 28 29 30 31 32 33 34 35 36 37 38 39 40 41 42 43 44 45 46 47 48 49 50
000
ASUS45 KSLC 191310
RWRUT

UTAH REGIONAL WEATHER ROUNDUP
NATIONAL WEATHER SERVICE SALT LAKE CITY UT
700 AM MDT TUE AUG 19 2014

UTZ001>011-023>025-191400-

NORTHERN UTAH

CITY           SKY/WX    TMP DP  RH WIND       PRES   REMARKS
HILL AFB       CLOUDY    70  50  49 S14       29.99R
LOGAN          CLEAR     65  50  58 VRB3      29.94R
OGDEN          CLOUDY    73  47  39 S17       29.96R
PROVO AIRPORT  DRIZZLE   64  54  68 S5        30.02R
SALT LAKE CITY LGT RAIN  72  49  44 S23G33    29.94R
VERNAL         CLOUDY    73  41  31 W13       30.03R
WENDOVER       CLOUDY    72  46  40 SE21      29.90R
HEBER CITY     DRIZZLE   59  54  82 CALM      30.07R
WEST JORDAN    CLOUDY    72  55  56 S14G21    29.99R

$$

UTZ012>022-026-027-191400-

SOUTHERN UTAH

CITY           SKY/WX    TMP DP  RH WIND       PRES   REMARKS
BRYCE CANYON   MOCLDY    47  45  93 W3        30.19S
CEDAR CITY     CLOUDY    58  54  86 W10       30.06R
MILFORD        CLOUDY    60  56  86 N5        30.04R
MOAB/CYNLANDS  CLOUDY    72  49  44 W8        30.00R
PRICE          CLOUDY    66  48  52 SE7       30.09R
ST GEORGE      CLOUDY    68  61  77 W10       29.95R
KANAB            N/A     63  52  67 NW7       30.06

$$

REGIONAL REPORTS     COLORADO/ARIZONA

CITY           SKY/WX    TMP DP  RH WIND       PRES   REMARKS
CRAIG, CO      CLOUDY    53  44  71 CALM      30.10R
GRAND JUNCTION LGT RAIN  72  45  37 N9        30.00F
RIFLE          CLOUDY    61  44  53 E3        30.09R
MONTROSE       LGT RAIN  68  49  50 SE14      30.10F
CORTEZ         CLEAR     61  54  77 CALM      30.12S
PAGE, AZ       CLOUDY    75  51  43 S3        29.97F
GRAND CANYON   CLOUDY    57  54  89 SE6       30.15S
KINGMAN        RAIN      66  64  93 SE13      29.95F FOG
FLAGSTAFF      LGT RAIN  56  54  93 NE3       30.18F

$$

REGIONAL REPORTS    NEVADA/IDAHO/WYOMING

CITY           SKY/WX    TMP DP  RH WIND       PRES   REMARKS
LAS VEGAS, NV  MOCLDY    82  62  50 S10       29.77R
ELY            LGT RAIN  55  52  89 SE18      30.07F
ELKO           PTCLDY    59  41  51 VRB3      29.93S
POCATELLO, ID  PTCLDY    57  50  77 E5        29.92F
BURLEY         MOCLDY    62  51  67 NW3       29.87R
EVANSTON, WY   MOCLDY    62  40  44 W13       30.11S
ROCK SPRINGS   CLOUDY    56  31  38 N5        30.07S

$$


USA.gov is the U.S. government's official web portal to all federal, state and local government web resources and services.